Content
SEND FEEDBACK

Daily
Averages
Monthly
Summary
French Polynesia

HITIAA, FRENCH POLYNESIA


Home > Oceania > French Polynesia
Elevation: 7 feet     Latitude: 17 33S     Longitude: 149 37W

WEATHER
 
SELECT A DAY
Number of Records: 208,245;   Date Range: 6/30/96 - 7/28/14
 
SHARE

PRINT THIS DATA

[ ← Previous Day ]
WEATHER ALMANAC - JANUARY 9, 2013
[ Next Day → ]
[ °C ]   °F
Weather ElementAverageHighLow
Temperature82.3 °F87.8 °F (11:00 am)76 °F (5:00 am)
Dewpoint72.6 °F75.2 °F (11:30 am)69.8 °F (12:30 am)
Humidity71.9 %89 % (6:00 am)54 % (11:00 am)
Barometer29.80 in29.86 in (8:00 am)29.77 in (2:00 am)
Wind Speed4.3 mph11.5 mph (2:00 pm)
Weather ElementAverage
Visibility7.4 mi
Wind DirectionSSE (148.4 °)

Weather ElementTotal
Precipitation---
Cooling Degree Days16.9 (Base 65)
Growing Degree Days31.9 (Base 50)
Averaged from 55 records on January 9, 2013
WEATHER CONDITIONS BREAKOUT
WIND DIRECTION BREAKOUT
WEATHER BY HOUR - JANUARY 9, 2013
[ °C ]   °F
Local TimeTemperatureDewpointHumidityBarometerVisibilityWind DirectionWind SpeedGust SpeedPrecipitationEventsConditions
12:30 AM77.0 °F69.8 °F78 %29.80 in6.2 miEast (100°)4.6 mphPartly Cloudy
1:00 AM77.0 °F69.8 °F78 %29.80 in6.2 miEast (100°)3.5 mphPartly Cloudy
1:30 AM77.0 °F69.8 °F78 %29.80 in6.2 miEast (100°)4.6 mphPartly Cloudy
2:00 AM77.0 °F71.0 °F76 %29.79 in12.0 miEast (100°)3.5 mphScattered Clouds
2:00 AM77.0 °F71.6 °F83 %29.77 in6.2 miEast (100°)3.5 mphPartly Cloudy
2:30 AM77.0 °F71.6 °F83 %29.77 in6.2 miEast (100°)4.6 mphPartly Cloudy
3:00 AM77.0 °F71.6 °F83 %29.77 in6.2 miEast (100°)3.5 mphPartly Cloudy
3:30 AM77.0 °F71.6 °F83 %29.77 in6.2 miESE (110°)3.5 mph
4:00 AM77.0 °F71.6 °F83 %29.77 in6.2 miEast (100°)3.5 mph
4:30 AM77.0 °F71.6 °F83 %29.80 in6.2 miESE (110°)4.6 mph
5:00 AM76.0 °F72.0 °F84 %29.81 in31.0 miESE (110°)4.5 mphClear
5:00 AM77.0 °F71.6 °F83 %29.80 in6.2 miESE (110°)2.3 mph
5:30 AM77.0 °F71.6 °F83 %29.80 in6.2 miCalm
6:00 AM77.0 °F73.4 °F89 %29.83 in6.2 miCalmPartly Cloudy
6:30 AM78.8 °F73.4 °F83 %29.83 in6.2 miEast (100°)4.6 mphPartly Cloudy
7:00 AM82.4 °F73.4 °F74 %29.83 in6.2 miVariable3.5 mphPartly Cloudy
7:30 AM84.2 °F73.4 °F70 %29.83 in6.2 miVariable2.3 mphScattered Clouds
8:00 AM83.0 °F73.0 °F65 %29.86 in12.0 miNorth (10°)4.6 mphPartly Cloudy
8:00 AM84.2 °F73.4 °F70 %29.86 in6.2 miNorth (10°)4.6 mphScattered Clouds
8:30 AM84.2 °F73.4 °F70 %29.83 in6.2 miNNE (20°)3.5 mphScattered Clouds
9:00 AM86.0 °F73.4 °F66 %29.83 in6.2 miNNW (340°)3.5 mphScattered Clouds
9:30 AM82.4 °F73.4 °F74 %29.83 in6.2 miWest (270°)3.5 mphScattered Clouds
10:00 AM84.2 °F73.4 °F70 %29.83 in6.2 miVariable2.3 mphScattered Clouds
10:30 AM86.0 °F73.4 °F66 %29.83 in6.2 miCalmScattered Clouds
11:00 AM87.0 °F73.0 °F54 %29.83 in9.0 miNNW (330°)6.7 mphScattered Clouds
11:00 AM87.8 °F73.4 °F62 %29.83 in6.2 miNNW (330°)3.5 mphScattered Clouds
11:30 AM87.8 °F75.2 °F66 %29.83 in6.2 miNNW (340°)5.8 mphScattered Clouds
12:00 PM87.8 °F75.2 °F66 %29.80 in6.2 miWNW (290°)5.8 mphMostly Cloudy
12:30 PM87.8 °F73.4 °F62 %29.80 in6.2 miVariable3.5 mphMostly Cloudy
1:00 PM87.8 °F73.4 °F62 %29.80 in6.2 miNW (320°)3.5 mphScattered Clouds
1:30 PM87.8 °F73.4 °F62 %29.77 in6.2 miNNW (340°)3.5 mphScattered Clouds
2:00 PM87.0 °F74.0 °F56 %29.80 in12.0 miNorth (10°)11.5 mphPartly Cloudy
2:00 PM86.0 °F73.4 °F66 %29.77 in6.2 miNorth (10°)11.5 mphScattered Clouds
2:30 PM86.0 °F73.4 °F66 %29.77 in6.2 miNorth (360°)8.1 mphPartly Cloudy
3:00 PM87.8 °F73.4 °F62 %29.77 in6.2 miNorth (10°)4.6 mphPartly Cloudy
3:30 PM86.0 °F73.4 °F66 %29.77 in6.2 miNorth (10°)4.6 mphScattered Clouds
4:00 PM86.0 °F73.4 °F66 %29.77 in6.2 miNorth (10°)5.8 mphScattered Clouds
4:30 PM87.8 °F73.4 °F62 %29.77 in6.2 miNNW (330°)6.9 mphPartly Cloudy
5:00 PM87.0 °F74.0 °F59 %29.78 in16.0 miNNW (330°)8.1 mphScattered Clouds
5:00 PM87.8 °F75.2 °F66 %29.77 in6.2 miNNW (330°)8.1 mphPartly Cloudy
5:30 PM84.2 °F73.4 °F70 %29.77 in6.2 miNorth (350°)5.8 mphPartly Cloudy
6:00 PM84.2 °F71.6 °F66 %29.80 in6.2 miNNW (340°)3.5 mphMostly Cloudy
6:30 PM82.4 °F73.4 °F74 %29.80 in6.2 miNW (320°)3.5 mphMostly Cloudy
7:00 PM82.4 °F73.4 °F74 %29.80 in6.2 miNorth (350°)3.5 mphMostly Cloudy
7:30 PM82.4 °F73.4 °F74 %29.80 in6.2 miNorth (350°)4.6 mphMostly Cloudy
8:00 PM82.0 °F72.0 °F66 %29.82 in12.0 miNorth3.5 mphScattered Clouds
8:00 PM82.4 °F71.6 °F70 %29.80 in6.2 miNorth (360°)3.5 mphScattered Clouds
8:30 PM80.6 °F71.6 °F74 %29.83 in6.2 miEast (80°)3.5 mphScattered Clouds
9:00 PM80.6 °F71.6 °F74 %29.83 in6.2 miEast (90°)3.5 mphScattered Clouds
9:30 PM80.6 °F71.6 °F74 %29.83 in6.2 miEast (100°)4.6 mphScattered Clouds
10:00 PM80.6 °F71.6 °F74 %29.83 in6.2 miEast (100°)4.6 mphScattered Clouds
10:30 PM78.8 °F71.6 °F78 %29.83 in6.2 miEast (100°)3.5 mphScattered Clouds
11:00 PM79.0 °F72.0 °F72 %29.83 in12.0 miEast (90°)3.5 mphScattered Clouds
11:00 PM78.8 °F71.6 °F78 %29.80 in6.2 miEast (90°)3.5 mphScattered Clouds
11:30 PM78.8 °F71.6 °F78 %29.80 in6.2 miEast (100°)3.5 mphScattered Clouds
Hourly data recorded from NTAA, located miles away from Hitiaa, French Polynesia







STORIES FROM OUR PARTNERS